[[{"header":{"parameterUnit":"m.s-1","parameterCategory":1,"la1":30.2991,"la2":30.254,"lo1":-89.0895,"lo2":-89.0444,"dy":0.0017,"dx":0.0017,"nx":28,"ny":28,"refTime":"2025-03-31T09:00:00:Z","depth":0,"parameterNumber":2,"parameterNumberName":"U-component_of_WINDS"},"data":[0,0,0,0,0,0,0,0,0,0,0,0,0,0,0,0,0,0,0,0,0,0,0,0,0,0,0,0,0,0,0,0,0,0,0,0,0,0,0,0,0,0,0,0,0,0,0,0,0,0,0,0,0,0,0,0,0,0,-0.7692,-0.7692,0,-0.7668,-0.7667,-0.7667,-0.763,-0.7629,-0.7629,-0.7628,-0.7604,-0.7604,-0.7604,0,0,0,0,0,0,0,0,0,0,0,0,0,-0.7708,-0.7708,-0.7692,-0.7692,-0.7691,-0.7668,-0.7667,-0.7667,-0.763,-0.7629,-0.7628,-0.7628,-0.7604,-0.7604,-0.7604,0,0,0,0,0,0,0,0,0,0,0,0,0,-0.7694,-0.7708,-0.7692,-0.767,-0.7668,-0.7668,-0.7667,-0.7667,-0.763,-0.7629,-0.7628,-0.7627,-0.7604,-0.7604,-0.7604,-0.7623,0,0,-0.7604,-0.7604,0,0,0,0,0,0,0,0,-0.7695,-0.7693,-0.7673,-0.7671,-0.7669,-0.7651,-0.7664,-0.7652,-0.763,-0.7644,-0.7628,-0.7627,-0.762,-0.7619,-0.7616,-0.7622,-0.7621,-0.7604,-0.7604,-0.7604,-0.7604,0,0,0,0,0,0,0,-0.7696,-0.7694,-0.7682,-0.7673,-0.767,-0.7662,-0.7659,-0.7662,-0.7638,-0.7643,-0.764,-0.7638,-0.7619,-0.7617,-0.7616,-0.7621,-0.7604,-0.7604,-0.7604,-0.7604,-0.7644,-0.7645,0,0,0,0,0,0,-0.77,-0.7695,-0.7683,-0.7682,-0.768,-0.7662,-0.7659,-0.7658,-0.7638,-0.7634,-0.7639,-0.7636,-0.7617,-0.7616,-0.7615,-0.7637,-0.7604,-0.7604,-0.7603,-0.7643,-0.7644,-0.7645,0,0,0,0,0,0,-0.77,-0.7699,-0.7684,-0.7688,-0.7685,-0.7663,-0.7662,-0.7658,-0.7655,-0.7635,-0.7631,-0.7641,-0.7616,-0.7615,-0.7622,-0.7636,-0.7603,-0.7603,-0.7641,-0.7643,-0.7644,-0.7682,0,0,0,0,0,0,-0.7701,-0.77,-0.7706,-0.7688,-0.7685,-0.7691,-0.7663,-0.7658,-0.7655,-0.7652,-0.7635,-0.7632,-0.7615,-0.7622,-0.7622,-0.7635,-0.7603,-0.764,-0.7642,-0.7644,-0.7679,-0.7685,-0.7689,0,0,0,0,0,-0.7702,-0.7717,-0.7707,-0.7705,-0.7693,-0.7692,-0.769,-0.7671,-0.7657,-0.7663,-0.7651,-0.7632,-0.7635,-0.7623,-0.7623,-0.7636,-0.7639,-0.7641,-0.7644,-0.7677,-0.7684,-0.7689,0,0,0,0,0,0,-0.7737,-0.7715,-0.7702,-0.7713,-0.7705,-0.7686,-0.7693,-0.7678,-0.7674,-0.7671,-0.7647,-0.7644,-0.7654,-0.7646,-0.7634,-0.7655,-0.7634,-0.7637,-0.766,-0.7666,-0.767,-0.7672,-0.7603,0,0,0,0,0,-0.7747,-0.7747,-0.7728,-0.7739,-0.7735,-0.7715,-0.7714,-0.77,-0.7691,-0.7687,-0.7675,-0.7667,-0.7666,-0.7665,-0.7663,-0.7679,-0.7675,-0.7688,-0.7693,-0.7697,-0.7699,-0.7707,-0.7713,-0.7653,-0.7653,-0.7653,0,0,-0.7765,-0.7753,-0.7755,-0.7746,-0.7737,-0.7739,-0.7713,-0.7715,-0.7717,-0.7688,-0.7693,-0.7685,-0.7674,-0.7686,-0.769,-0.7679,-0.7715,-0.77,-0.7703,-0.7703,-0.7711,-0.7716,-0.7721,-0.7655,-0.7654,-0.7654,0,0,-0.78,-0.7791,-0.7799,-0.7792,-0.7781,-0.7768,-0.777,-0.7754,-0.7747,-0.7753,-0.7731,-0.7733,-0.7732,-0.7725,-0.7722,-0.7757,-0.7741,-0.7758,-0.7783,-0.7791,-0.7796,-0.78,-0.7813,-0.7818,-0.776,-0.776,-0.776,0,-0.7824,-0.7826,-0.7806,-0.781,-0.7807,-0.7782,-0.7791,-0.7785,-0.7774,-0.7773,-0.7761,-0.7759,-0.775,-0.7761,-0.777,-0.7768,-0.777,-0.7758,-0.7797,-0.7801,-0.7804,-0.7816,-0.7821,-0.7762,-0.7762,-0.7762,-0.7761,0,-0.7857,-0.7859,-0.7867,-0.7857,-0.7855,-0.7862,-0.7844,-0.7844,-0.7831,-0.782,-0.7827,-0.7816,-0.7812,-0.7814,-0.7801,-0.7823,-0.7816,-0.7801,-0.7779,-0.7813,-0.7823,-0.7828,-0.7765,-0.7764,-0.7764,-0.7763,0,0,-0.7911,-0.7891,-0.7895,-0.789,-0.7877,-0.7878,-0.7885,-0.7881,-0.7882,-0.7876,-0.7881,-0.7882,-0.7868,-0.7865,-0.7851,-0.7859,-0.7888,-0.7843,-0.7842,-0.7851,-0.7913,-0.7923,-0.7929,-0.7878,-0.7878,-0.7879,-0.7913,0,-0.7943,-0.7952,-0.7935,-0.7948,-0.795,-0.7927,-0.7933,-0.7926,-0.7917,-0.7917,-0.7907,-0.7908,-0.789,-0.7887,-0.7894,-0.7883,-0.79,-0.7881,-0.7882,-0.7883,-0.7885,-0.7934,-0.7946,-0.7978,-0.7917,-0.7918,-0.7919,0,-0.798,-0.7976,-0.799,-0.7977,-0.7977,-0.7983,-0.7979,-0.7979,-0.7972,-0.7964,-0.7962,-0.7946,-0.7953,-0.7933,-0.7942,-0.7929,-0.793,-0.7925,-0.7926,-0.7924,-0.7902,-0.7934,-0.7988,-0.7993,-0.7925,-0.7925,-0.7924,0,-0.8018,-0.8017,-0.8025,-0.8022,-0.8007,-0.8012,-0.8006,-0.7997,-0.7997,-0.7994,-0.7993,-0.7991,-0.7989,-0.7989,-0.7974,-0.796,-0.7985,-0.7964,-0.7979,-0.798,-0.7984,-0.7984,-0.8038,-0.7986,-0.7986,-0.7986,-0.7985,0,-0.8055,-0.8064,-0.8042,-0.8047,-0.8057,-0.8039,-0.805,-0.8042,-0.8035,-0.8038,-0.8019,-0.8023,-0.8003,-0.8006,-0.7994,-0.8004,-0.8003,-0.7998,-0.7995,-0.7999,-0.8,-0.7998,-0.7995,-0.7987,-0.7987,-0.7986,-0.7986,0,-0.8098,-0.8084,-0.8091,-0.8078,-0.8074,-0.8083,-0.8071,-0.8076,-0.8066,-0.8071,-0.8071,-0.8055,-0.8057,-0.8043,-0.8042,-0.8034,-0.8049,-0.8042,-0.8051,-0.8049,-0.8065,-0.8064,-0.812,-0.8127,-0.807,-0.8071,-0.8072,0,-0.8122,-0.8129,-0.8116,-0.8117,-0.8112,-0.8114,-0.8114,-0.8097,-0.8097,-0.809,-0.8096,-0.8096,-0.8095,-0.81,-0.8089,-0.8089,-0.8081,-0.8101,-0.8081,-0.8086,-0.8081,-0.808,-0.8081,-0.8105,-0.8105,-0.8106,-0.8106,0,-0.8166,-0.8159,-0.8158,-0.8156,-0.8156,-0.8153,-0.815,-0.8152,-0.8134,-0.8135,-0.8137,-0.8137,-0.8136,-0.8137,-0.8135,-0.813,-0.8116,-0.8113,-0.8117,-0.8121,-0.8126,-0.8123,-0.8062,-0.8112,-0.8111,-0.8111,-0.811,-0.811,-0.8199,-0.8205,-0.8197,-0.8198,-0.8193,-0.8191,-0.8195,-0.8186,-0.8187,-0.8185,-0.8176,-0.818,-0.8174,-0.8169,-0.8166,-0.8169,-0.816,-0.8165,-0.8166,-0.8167,-0.817,-0.8126,-0.8169,-0.8169,-0.8169,-0.8169,-0.8168,0,-0.8242,-0.8236,-0.8237,-0.8233,-0.8234,-0.8221,-0.8217,-0.8219,-0.8222,-0.8218,-0.8218,-0.8221,-0.8222,-0.8212,-0.8213,-0.8217,-0.8211,-0.8218,-0.8217,-0.8216,-0.8179,-0.8175,-0.8223,-0.8223,-0.8223,-0.8223,-0.8223,-0.8223,-0.8264,-0.8272,-0.8265,-0.8272,-0.8266,-0.8269,-0.8268,-0.8266,-0.8263,-0.8267,-0.8268,-0.8262,-0.8256,-0.8256,-0.8257,-0.8254,-0.8255,-0.8264,-0.8259,-0.8224,-0.8219,-0.8213,-0.821,-0.8265,-0.8265,-0.8296,-0.8296,-0.8297]},{"header":{"parameterUnit":"m.s-1","parameterCategory":1,"la1":30.2991,"la2":30.254,"lo1":-89.0895,"lo2":-89.0444,"dy":0.0017,"dx":0.0017,"nx":28,"ny":28,"refTime":"2025-03-31T09:00:00:Z","depth":0,"parameterNumber":3,"parameterNumberName":"V-component_of_WINDS"},"data":[0,0,0,0,0,0,0,0,0,0,0,0,0,0,0,0,0,0,0,0,0,0,0,0,0,0,0,0,0,0,0,0,0,0,0,0,0,0,0,0,0,0,0,0,0,0,0,0,0,0,0,0,0,0,0,0,0,0,1.7292,1.7292,0,1.7306,1.7307,1.7307,1.7307,1.7307,1.7307,1.7307,1.732,1.732,1.7321,0,0,0,0,0,0,0,0,0,0,0,0,0,1.7264,1.7265,1.7292,1.7292,1.7293,1.7306,1.7307,1.7307,1.7307,1.7307,1.7307,1.7307,1.732,1.732,1.7321,0,0,0,0,0,0,0,0,0,0,0,0,0,1.7277,1.7265,1.7292,1.7295,1.7295,1.7306,1.7307,1.7307,1.7307,1.7307,1.7307,1.7307,1.7319,1.732,1.7321,1.7331,0,0,1.7323,1.7324,0,0,0,0,0,0,0,0,1.7276,1.7278,1.7294,1.7294,1.7295,1.7305,1.7301,1.7315,1.7307,1.7303,1.7307,1.7306,1.7315,1.7316,1.7319,1.7331,1.7332,1.7323,1.7324,1.7324,1.7324,0,0,0,0,0,0,0,1.7275,1.7277,1.7298,1.7294,1.7295,1.7294,1.7296,1.7304,1.731,1.7303,1.7303,1.7305,1.7315,1.7318,1.7319,1.7332,1.7323,1.7324,1.7324,1.7325,1.7352,1.7353,0,0,0,0,0,0,1.7274,1.7277,1.7297,1.7298,1.7285,1.7295,1.7297,1.7302,1.731,1.7311,1.7305,1.7305,1.7317,1.7319,1.732,1.7332,1.7324,1.7325,1.7325,1.7352,1.7353,1.7353,0,0,0,0,0,0,1.7274,1.7276,1.7297,1.7287,1.729,1.7296,1.7301,1.7302,1.7306,1.7311,1.7312,1.7307,1.7317,1.7319,1.7328,1.7332,1.7325,1.7326,1.7352,1.7352,1.7353,1.7356,0,0,0,0,0,0,1.7273,1.7276,1.728,1.7288,1.7291,1.7305,1.7302,1.7303,1.7307,1.7307,1.7314,1.7315,1.7317,1.7327,1.7329,1.7333,1.7326,1.7351,1.7352,1.7353,1.7355,1.7356,1.7357,0,0,0,0,0,1.7272,1.728,1.728,1.7283,1.7296,1.7305,1.7307,1.731,1.7307,1.7311,1.7315,1.7315,1.7332,1.7328,1.733,1.7335,1.7351,1.7352,1.7353,1.7355,1.7356,1.7357,0,0,0,0,0,0,1.7272,1.7281,1.7281,1.7292,1.7298,1.7305,1.7311,1.7311,1.7317,1.7317,1.7319,1.7321,1.733,1.7333,1.7329,1.7344,1.7341,1.7342,1.7342,1.7343,1.7344,1.7343,1.7327,0,0,0,0,0,1.7274,1.7281,1.7288,1.7297,1.73,1.7305,1.7309,1.7311,1.7317,1.7319,1.7323,1.7329,1.7335,1.7339,1.7346,1.7356,1.7357,1.736,1.7361,1.7362,1.7363,1.7368,1.737,1.7355,1.7355,1.7355,0,0,1.7276,1.7282,1.7287,1.7297,1.7302,1.7309,1.7307,1.7314,1.732,1.732,1.7329,1.7332,1.7338,1.7348,1.7353,1.7351,1.7367,1.7362,1.7363,1.7364,1.7369,1.737,1.7372,1.7355,1.7355,1.7355,0,0,1.7286,1.7291,1.7299,1.7304,1.7311,1.7314,1.7316,1.7323,1.7326,1.7335,1.7335,1.7341,1.7352,1.7357,1.736,1.7371,1.7371,1.7373,1.7378,1.7383,1.7384,1.7385,1.7389,1.7391,1.7374,1.7374,1.7374,0,1.7288,1.73,1.7303,1.7311,1.7315,1.7316,1.7324,1.7328,1.7337,1.734,1.7338,1.7352,1.7357,1.7367,1.737,1.7373,1.7375,1.7372,1.7384,1.7385,1.7386,1.739,1.7391,1.7374,1.7374,1.7374,1.7374,0,1.7302,1.731,1.7316,1.7325,1.733,1.7338,1.7342,1.7347,1.7348,1.7351,1.736,1.7365,1.7373,1.7375,1.7376,1.7386,1.7385,1.7383,1.738,1.7388,1.7391,1.7393,1.7374,1.7374,1.7374,1.7374,0,0,1.7312,1.7323,1.7325,1.733,1.7338,1.7343,1.7351,1.7359,1.7363,1.7369,1.7375,1.7385,1.7383,1.7387,1.7389,1.7394,1.7402,1.7392,1.7392,1.7394,1.7413,1.7415,1.7417,1.7402,1.7402,1.7402,1.7413,0,1.7323,1.7337,1.734,1.7352,1.736,1.7361,1.7367,1.7373,1.7376,1.7382,1.7385,1.7392,1.7389,1.7392,1.7397,1.74,1.7406,1.7399,1.7408,1.7408,1.7407,1.7418,1.742,1.743,1.7415,1.7415,1.7415,0,1.7337,1.7343,1.7357,1.7364,1.7367,1.7373,1.7381,1.7386,1.7392,1.7394,1.7399,1.74,1.7407,1.7403,1.7414,1.7409,1.7413,1.7415,1.7415,1.7417,1.7412,1.742,1.7433,1.7435,1.7417,1.7417,1.7417,0,1.7343,1.7355,1.7365,1.7369,1.7377,1.7381,1.7385,1.7391,1.7395,1.7401,1.7404,1.7411,1.7415,1.742,1.7422,1.7419,1.7433,1.7429,1.7434,1.7434,1.7438,1.7437,1.7452,1.7439,1.7439,1.7439,1.7439,0,1.7354,1.7363,1.7368,1.7374,1.7383,1.7386,1.7395,1.7398,1.7403,1.741,1.741,1.7416,1.7419,1.7425,1.7427,1.7436,1.7437,1.7439,1.7439,1.7439,1.7439,1.7442,1.7441,1.7439,1.7439,1.7439,1.7439,0,1.7363,1.7367,1.7378,1.7385,1.7387,1.7394,1.74,1.7405,1.7408,1.7416,1.7418,1.7423,1.743,1.7433,1.7441,1.7443,1.7453,1.7452,1.7451,1.7451,1.7457,1.7457,1.7474,1.7476,1.7462,1.7462,1.7462,0,1.7371,1.7377,1.7385,1.739,1.7394,1.7401,1.7406,1.7409,1.7414,1.7421,1.7425,1.7433,1.7439,1.745,1.7454,1.7461,1.7461,1.7466,1.7462,1.7461,1.7461,1.7461,1.7462,1.7467,1.7468,1.7468,1.7468,0,1.7383,1.7385,1.7392,1.74,1.7406,1.7412,1.7418,1.7421,1.7425,1.743,1.7438,1.7443,1.7452,1.7459,1.7466,1.7469,1.7469,1.7469,1.7471,1.7471,1.747,1.7471,1.7454,1.7469,1.7469,1.7469,1.7469,1.7469,1.7392,1.7398,1.7405,1.7413,1.7417,1.7423,1.7429,1.7432,1.7439,1.7447,1.7448,1.7456,1.7462,1.7471,1.7475,1.7481,1.748,1.7482,1.7483,1.7483,1.7484,1.7469,1.7482,1.7482,1.7482,1.7482,1.7482,0,1.7405,1.741,1.7417,1.7426,1.7432,1.7431,1.7438,1.7443,1.745,1.7456,1.7462,1.7471,1.7478,1.7482,1.7489,1.7493,1.7493,1.7495,1.7495,1.7496,1.7485,1.7483,1.7494,1.7494,1.7494,1.7494,1.7494,1.7494,1.7413,1.7423,1.7425,1.7438,1.7442,1.7451,1.7454,1.7459,1.7464,1.7474,1.748,1.7483,1.7487,1.7495,1.7501,1.7502,1.7505,1.7507,1.7508,1.7497,1.7496,1.7495,1.7493,1.7507,1.7507,1.7518,1.7518,1.7518]}]]